Time,TemperatureF,DewpointF,PressureIn,WindDirection,WindDirectionDegrees,WindSpeedMPH,WindSpeedGustMPH,Humidity,HourlyPrecipIn,Conditions,Clouds,dailyrainin,SoftwareType,DateUTC
2013-03-03 00:03:00,33.4,26.0,30.10,SSW,212,0.0,0.0,75,0.00,,,0.00,weatherlink.com 1.10,2013-03-03 06:03:00,
2013-03-03 00:18:00,32.9,26.0,30.09,SSW,212,0.0,0.0,76,0.00,,,0.00,weatherlink.com 1.10,2013-03-03 06:18:00,
2013-03-03 00:33:00,32.8,26.0,30.10,SSW,212,0.0,0.0,77,0.00,,,0.00,weatherlink.com 1.10,2013-03-03 06:33:00,
2013-03-03 00:48:00,32.3,26.0,30.10,SSW,212,0.0,0.0,78,0.00,,,0.00,weatherlink.com 1.10,2013-03-03 06:48:00,
2013-03-03 01:03:00,32.0,26.0,30.09,SSW,212,0.0,0.0,79,0.00,,,0.00,weatherlink.com 1.10,2013-03-03 07:03:00,
2013-03-03 01:18:00,32.1,26.0,30.09,SSW,212,0.0,0.0,79,0.00,,,0.00,weatherlink.com 1.10,2013-03-03 07:18:00,
2013-03-03 01:33:00,31.7,26.0,30.09,SSW,212,0.0,0.0,79,0.00,,,0.00,weatherlink.com 1.10,2013-03-03 07:33:00,
2013-03-03 01:48:00,31.4,26.0,30.08,SSW,212,0.0,0.0,79,0.00,,,0.00,weatherlink.com 1.10,2013-03-03 07:48:00,
2013-03-03 02:03:00,31.4,26.0,30.07,SSW,212,0.0,0.0,80,0.00,,,0.00,weatherlink.com 1.10,2013-03-03 08:03:00,
2013-03-03 02:18:00,31.8,26.0,30.07,SSW,212,0.0,0.0,79,0.00,,,0.00,weatherlink.com 1.10,2013-03-03 08:18:00,
2013-03-03 02:34:00,32.6,26.0,30.05,SSE,168,0.0,3.0,77,0.00,,,0.00,weatherlink.com 1.10,2013-03-03 08:34:00,
2013-03-03 02:49:00,32.9,26.0,30.04,South,181,0.0,3.0,76,0.00,,,0.00,weatherlink.com 1.10,2013-03-03 08:49:00,
2013-03-03 03:04:00,32.9,26.0,30.04,SSW,193,0.0,3.0,76,0.00,,,0.00,weatherlink.com 1.10,2013-03-03 09:04:00,
2013-03-03 03:19:00,33.2,26.0,30.03,SSW,202,0.0,0.0,75,0.00,,,0.00,weatherlink.com 1.10,2013-03-03 09:19:00,
2013-03-03 03:34:00,33.2,26.0,30.02,SSW,197,0.0,2.0,75,0.00,,,0.00,weatherlink.com 1.10,2013-03-03 09:34:00,
2013-03-03 03:49:00,33.6,26.0,30.01,SSW,197,0.0,0.0,74,0.00,,,0.00,weatherlink.com 1.10,2013-03-03 09:49:00,
2013-03-03 04:04:00,33.6,26.0,30.00,SSE,167,0.0,2.0,74,0.00,,,0.00,weatherlink.com 1.10,2013-03-03 10:04:00,
2013-03-03 04:19:00,33.1,26.0,29.99,SSW,193,0.0,3.0,75,0.00,,,0.00,weatherlink.com 1.10,2013-03-03 10:19:00,
2013-03-03 04:34:00,32.7,26.0,29.98,SSW,197,0.0,3.0,76,0.00,,,0.00,weatherlink.com 1.10,2013-03-03 10:34:00,
2013-03-03 04:49:00,32.7,26.0,29.98,SSW,196,0.0,3.0,76,0.00,,,0.00,weatherlink.com 1.10,2013-03-03 10:49:00,
2013-03-03 05:04:00,32.8,26.0,29.97,SSW,196,0.0,3.0,76,0.00,,,0.00,weatherlink.com 1.10,2013-03-03 11:04:00,
2013-03-03 05:19:00,32.8,26.0,29.97,SSW,204,1.0,2.0,76,0.00,,,0.00,weatherlink.com 1.10,2013-03-03 11:19:00,
2013-03-03 05:34:00,32.9,26.0,29.97,SSW,212,0.0,3.0,76,0.00,,,0.00,weatherlink.com 1.10,2013-03-03 11:34:00,
2013-03-03 05:49:00,32.8,26.0,29.96,SW,214,1.0,7.0,76,0.00,,,0.00,weatherlink.com 1.10,2013-03-03 11:49:00,
2013-03-03 06:04:00,32.5,26.0,29.95,ESE,119,0.0,3.0,77,0.00,,,0.00,weatherlink.com 1.10,2013-03-03 12:04:00,
2013-03-03 06:19:00,32.3,26.0,29.95,South,190,0.0,2.0,78,0.00,,,0.00,weatherlink.com 1.10,2013-03-03 12:19:00,
2013-03-03 06:34:00,32.2,26.0,29.95,SSW,198,0.0,0.0,78,0.00,,,0.00,weatherlink.com 1.10,2013-03-03 12:34:00,
2013-03-03 06:49:00,32.1,26.0,29.94,SSW,202,0.0,0.0,79,0.00,,,0.00,weatherlink.com 1.10,2013-03-03 12:49:00,
2013-03-03 07:04:00,32.3,26.0,29.94,SSW,199,0.0,5.0,79,0.00,,,0.00,weatherlink.com 1.10,2013-03-03 13:04:00,
2013-03-03 07:19:00,32.7,27.0,29.94,SSW,193,0.0,5.0,79,0.00,,,0.00,weatherlink.com 1.10,2013-03-03 13:19:00,
2013-03-03 07:34:00,33.1,27.0,29.93,SSW,192,3.0,5.0,78,0.00,,,0.00,weatherlink.com 1.10,2013-03-03 13:34:00,
2013-03-03 07:49:00,34.4,28.0,29.92,South,190,0.0,6.0,76,0.00,,,0.00,weatherlink.com 1.10,2013-03-03 13:49:00,
2013-03-03 08:04:00,35.4,28.0,29.93,SW,218,0.0,3.0,75,0.00,,,0.00,weatherlink.com 1.10,2013-03-03 14:04:00,
2013-03-03 08:19:00,36.4,29.0,29.93,SSE,161,0.0,5.0,73,0.00,,,0.00,weatherlink.com 1.10,2013-03-03 14:19:00,
2013-03-03 08:34:00,37.5,29.0,29.92,South,169,0.0,3.0,72,0.00,,,0.00,weatherlink.com 1.10,2013-03-03 14:34:00,
2013-03-03 08:49:00,38.5,30.0,29.92,SSW,194,0.0,4.0,71,0.00,,,0.00,weatherlink.com 1.10,2013-03-03 14:49:00,
2013-03-03 09:04:00,39.6,31.0,29.91,South,188,5.0,5.0,70,0.00,,,0.00,weatherlink.com 1.10,2013-03-03 15:04:00,
2013-03-03 09:19:00,40.4,31.0,29.90,SSW,202,1.0,8.0,69,0.00,,,0.00,weatherlink.com 1.10,2013-03-03 15:19:00,
2013-03-03 09:34:00,41.1,31.0,29.89,South,190,4.0,7.0,67,0.00,,,0.00,weatherlink.com 1.10,2013-03-03 15:34:00,
2013-03-03 09:49:00,41.7,31.0,29.89,SSW,202,3.0,10.0,67,0.00,,,0.00,weatherlink.com 1.10,2013-03-03 15:49:00,
2013-03-03 10:04:00,42.4,32.0,29.88,South,181,0.0,7.0,66,0.00,,,0.00,weatherlink.com 1.10,2013-03-03 16:04:00,
2013-03-03 10:19:00,43.4,32.0,29.87,SSW,210,3.0,7.0,65,0.00,,,0.00,weatherlink.com 1.10,2013-03-03 16:19:00,
2013-03-03 10:35:00,43.9,33.0,29.86,SW,223,1.0,8.0,65,0.00,,,0.00,weatherlink.com 1.10,2013-03-03 16:35:00,
2013-03-03 10:50:00,44.5,33.0,29.86,SW,225,0.0,7.0,64,0.00,,,0.00,weatherlink.com 1.10,2013-03-03 16:50:00,
2013-03-03 11:05:00,45.6,34.0,29.86,South,190,2.0,6.0,65,0.00,,,0.00,weatherlink.com 1.10,2013-03-03 17:05:00,
2013-03-03 11:20:00,46.5,34.0,29.86,SSW,194,0.0,7.0,63,0.00,,,0.00,weatherlink.com 1.10,2013-03-03 17:20:00,
2013-03-03 11:35:00,47.3,35.0,29.84,SSW,205,0.0,6.0,63,0.00,,,0.00,weatherlink.com 1.10,2013-03-03 17:35:00,
2013-03-03 11:50:00,48.1,35.0,29.83,South,190,0.0,7.0,62,0.00,,,0.00,weatherlink.com 1.10,2013-03-03 17:50:00,
2013-03-03 12:05:00,49.3,36.0,29.82,SSW,198,0.0,7.0,61,0.00,,,0.00,weatherlink.com 1.10,2013-03-03 18:05:00,
2013-03-03 12:20:00,50.3,37.0,29.81,SSE,153,0.0,6.0,60,0.00,,,0.00,weatherlink.com 1.10,2013-03-03 18:20:00,
2013-03-03 12:35:00,51.3,38.0,29.80,SSW,192,0.0,7.0,60,0.00,,,0.00,weatherlink.com 1.10,2013-03-03 18:35:00,
2013-03-03 12:50:00,51.8,38.0,29.78,SSW,202,0.0,7.0,59,0.00,,,0.00,weatherlink.com 1.10,2013-03-03 18:50:00,
2013-03-03 13:05:00,52.2,38.0,29.77,SW,216,0.0,5.0,58,0.00,,,0.00,weatherlink.com 1.10,2013-03-03 19:05:00,
2013-03-03 13:20:00,53.5,39.0,29.77,South,182,0.0,7.0,58,0.00,,,0.00,weatherlink.com 1.10,2013-03-03 19:20:00,
2013-03-03 13:35:00,55.0,39.0,29.75,South,183,3.0,5.0,55,0.00,,,0.00,weatherlink.com 1.10,2013-03-03 19:35:00,
2013-03-03 13:50:00,56.1,39.0,29.73,SW,219,0.0,3.0,53,0.00,,,0.00,weatherlink.com 1.10,2013-03-03 19:50:00,
2013-03-03 14:05:00,56.2,39.0,29.72,SSW,206,0.0,5.0,53,0.00,,,0.00,weatherlink.com 1.10,2013-03-03 20:05:00,
2013-03-03 14:20:00,57.4,40.0,29.71,SW,225,0.0,7.0,52,0.00,,,0.00,weatherlink.com 1.10,2013-03-03 20:20:00,
2013-03-03 14:35:00,57.8,40.0,29.70,SSW,213,0.0,7.0,51,0.00,,,0.00,weatherlink.com 1.10,2013-03-03 20:35:00,
2013-03-03 14:50:00,58.1,40.0,29.69,SE,141,0.0,0.0,52,0.00,,,0.00,weatherlink.com 1.10,2013-03-03 20:50:00,
2013-03-03 15:06:00,58.8,39.0,29.68,ESE,116,0.0,2.0,49,0.00,,,0.00,weatherlink.com 1.10,2013-03-03 21:06:00,
2013-03-03 15:21:00,59.0,39.0,29.68,SW,218,0.0,4.0,48,0.00,,,0.00,weatherlink.com 1.10,2013-03-03 21:21:00,
2013-03-03 15:36:00,59.6,39.0,29.67,South,182,0.0,4.0,46,0.00,,,0.00,weatherlink.com 1.10,2013-03-03 21:36:00,
2013-03-03 15:51:00,60.0,38.0,29.66,SE,125,0.0,5.0,45,0.00,,,0.00,weatherlink.com 1.10,2013-03-03 21:51:00,
2013-03-03 16:06:00,59.2,38.0,29.65,SE,134,0.0,0.0,46,0.00,,,0.00,weatherlink.com 1.10,2013-03-03 22:06:00,
2013-03-03 16:21:00,58.9,38.0,29.64,SE,144,0.0,3.0,46,0.00,,,0.00,weatherlink.com 1.10,2013-03-03 22:21:00,
2013-03-03 16:36:00,58.7,38.0,29.64,ESE,105,0.0,1.0,47,0.00,,,0.00,weatherlink.com 1.10,2013-03-03 22:36:00,
2013-03-03 16:51:00,58.6,38.0,29.63,ESE,123,0.0,5.0,47,0.00,,,0.00,weatherlink.com 1.10,2013-03-03 22:51:00,
2013-03-03 17:06:00,58.3,38.0,29.63,SE,142,0.0,0.0,47,0.00,,,0.00,weatherlink.com 1.10,2013-03-03 23:06:00,
2013-03-03 17:21:00,58.2,38.0,29.63,ESE,123,0.0,0.0,47,0.00,,,0.00,weatherlink.com 1.10,2013-03-03 23:21:00,
2013-03-03 17:36:00,57.9,38.0,29.62,SE,138,0.0,0.0,48,0.00,,,0.00,weatherlink.com 1.10,2013-03-03 23:36:00,
2013-03-03 17:51:00,57.4,38.0,29.62,ENE,73,0.0,0.0,48,0.00,,,0.00,weatherlink.com 1.10,2013-03-03 23:51:00,
2013-03-03 18:06:00,57.0,37.0,29.61,ESE,117,0.0,3.0,48,0.00,,,0.00,weatherlink.com 1.10,2013-03-04 00:06:00,
2013-03-03 18:21:00,56.3,37.0,29.61,ESE,120,0.0,2.0,49,0.00,,,0.00,weatherlink.com 1.10,2013-03-04 00:21:00,
2013-03-03 18:36:00,55.7,37.0,29.61,ESE,118,0.0,4.0,50,0.00,,,0.00,weatherlink.com 1.10,2013-03-04 00:36:00,
2013-03-03 18:51:00,55.3,37.0,29.61,SE,142,2.0,7.0,50,0.00,,,0.00,weatherlink.com 1.10,2013-03-04 00:51:00,
2013-03-03 19:06:00,54.9,36.0,29.61,SE,144,0.0,5.0,49,0.00,,,0.00,weatherlink.com 1.10,2013-03-04 01:06:00,
2013-03-03 19:21:00,53.9,36.0,29.60,ESE,120,0.0,2.0,51,0.00,,,0.00,weatherlink.com 1.10,2013-03-04 01:21:00,
2013-03-03 19:36:00,53.1,36.0,29.60,ESE,116,0.0,3.0,52,0.00,,,0.00,weatherlink.com 1.10,2013-03-04 01:36:00,
2013-03-03 19:51:00,52.5,36.0,29.60,SE,126,1.0,5.0,53,0.00,,,0.00,weatherlink.com 1.10,2013-03-04 01:51:00,
2013-03-03 20:06:00,52.0,36.0,29.60,ESE,111,0.0,6.0,54,0.00,,,0.00,weatherlink.com 1.10,2013-03-04 02:06:00,
2013-03-03 20:21:00,51.7,36.0,29.60,SE,138,0.0,4.0,55,0.00,,,0.00,weatherlink.com 1.10,2013-03-04 02:21:00,
2013-03-03 20:36:00,51.5,36.0,29.59,ESE,119,0.0,4.0,56,0.00,,,0.00,weatherlink.com 1.10,2013-03-04 02:36:00,
2013-03-03 20:51:00,51.5,36.0,29.59,SE,141,0.0,6.0,56,0.00,,,0.00,weatherlink.com 1.10,2013-03-04 02:51:00,
2013-03-03 21:06:00,51.3,36.0,29.58,ESE,113,0.0,3.0,56,0.00,,,0.00,weatherlink.com 1.10,2013-03-04 03:06:00,
2013-03-03 21:21:00,51.0,36.0,29.58,ESE,113,0.0,1.0,57,0.00,,,0.00,weatherlink.com 1.10,2013-03-04 03:21:00,
2013-03-03 21:36:00,50.7,36.0,29.58,ESE,110,0.0,4.0,57,0.00,,,0.00,weatherlink.com 1.10,2013-03-04 03:36:00,
2013-03-03 21:52:00,50.1,36.0,29.57,ESE,120,0.0,1.0,58,0.00,,,0.00,weatherlink.com 1.10,2013-03-04 03:52:00,
2013-03-03 22:07:00,49.7,36.0,29.57,South,171,1.0,5.0,59,0.00,,,0.00,weatherlink.com 1.10,2013-03-04 04:07:00,
2013-03-03 22:22:00,49.2,36.0,29.56,East,96,0.0,5.0,60,0.00,,,0.00,weatherlink.com 1.10,2013-03-04 04:22:00,
2013-03-03 22:37:00,48.9,35.0,29.56,SE,126,0.0,3.0,60,0.00,,,0.00,weatherlink.com 1.10,2013-03-04 04:37:00,
2013-03-03 22:52:00,48.7,35.0,29.55,ESE,120,0.0,4.0,60,0.00,,,0.00,weatherlink.com 1.10,2013-03-04 04:52:00,
2013-03-03 23:07:00,48.6,35.0,29.55,ESE,119,0.0,5.0,60,0.00,,,0.00,weatherlink.com 1.10,2013-03-04 05:07:00,
2013-03-03 23:22:00,48.5,35.0,29.53,ESE,107,0.0,6.0,61,0.00,,,0.00,weatherlink.com 1.10,2013-03-04 05:22:00,
2013-03-03 23:37:00,48.6,35.0,29.53,ESE,111,1.0,4.0,60,0.00,,,0.00,weatherlink.com 1.10,2013-03-04 05:37:00,
2013-03-03 23:52:00,48.8,35.0,29.53,ESE,109,3.0,5.0,60,0.00,,,0.00,weatherlink.com 1.10,2013-03-04 05:52:00,